Des Moines, IA

4:53 PM CDT on April 27, 2017 (GMT -0500)
Des Moines International

Weather History for KDSM - January, 2014

Change the Weather History Date:

Sunday, January 5, 2014

  Actual Average Record
Temperature  
Mean Temperature 0 °F 23 °F  
Max Temperature 10 °F 31 °F 65 °F (2012)
Min Temperature -10 °F 15 °F -30 °F (1884)
Degree Days  
Heating Degree Days 65 42  
Month to date heating degree days 277 210  
Since 1 July heating degree days 2833 2677  
Cooling Degree Days 0 0  
Month to date cooling degree days 0 0  
Year to date cooling degree days 0 0  
Moisture  
Dew Point -12 °F    
Average Humidity 57    
Maximum Humidity 69    
Minimum Humidity 44    
Precipitation  
Precipitation T in 0.03 in 1.36 in (1946)
Month to date precipitation 0.14 0.17  
Year to date precipitation 0.14 0.17  
Snow  
Snow T in 0.30 in 10.20 in (1929)
Month to date snowfall 2.2 1.3  
Since 1 July snowfall 17.2 13.2  
Snow Depth 3.00 in    
Sea Level Pressure  
Sea Level Pressure 30.38 in    
Wind  
Wind Speed 21 mph (NNW)    
Max Wind Speed 31 mph    
Max Gust Speed 41 mph    
Visibility 10 miles    
Events Snow    
T = Trace of Precipitation, MM = Missing Value Source: NWS Daily Summary

Daily Weather History Graph

Daily Weather History Graph

Search for Another Location

Airport or City:

Trip Planner

Search our weather history database for the weather conditions in past years. The results will help you decide how hot, cold, wet, or windy it might be!

Date:

Astronomy

Jan. 05, 2014 Rise Set
Actual Time 7:41 AM CST 4:59 PM CST
Civil Twilight 7:10 AM CST 5:30 PM CST
Nautical Twilight 6:35 AM CST 6:04 PM CST
Astronomical Twilight 6:01 AM CST 6:38 PM CST
Moon 10:19 AM CST (1/5) 10:32 PM CST (1/5)
Length of Visible Light 10h 20m
Length of Day
9h 17m
Waxing Crescent, 25% of the Moon is Illuminated
Jan 5
Waxing Crescent
Jan 7
First Quarter
Jan 15
Full
Jan 23
Last Quarter
Jan 30
New

Hourly Weather History & Observations

Time (CST) Temp. Windchill Dew Point Humidity Pressure Visibility Wind Dir Wind Speed Gust Speed Precip Events Conditions
12:54 AM 9.0 °F -7.9 °F -2.0 °F 61% 30.23 in 10.0 mi North 15.0 mph - N/A   Overcast
1:54 AM 8.1 °F -8.4 °F -2.0 °F 64% 30.24 in 10.0 mi North 13.8 mph 23.0 mph N/A   Overcast
2:54 AM 7.0 °F -10.4 °F -2.9 °F 64% 30.24 in 10.0 mi North 15.0 mph - N/A   Overcast
3:54 AM 7.0 °F -13.1 °F -4.0 °F 61% 30.24 in 10.0 mi North 20.7 mph 26.5 mph N/A   Overcast
4:54 AM 5.0 °F -14.7 °F -6.0 °F 61% 30.25 in 10.0 mi North 18.4 mph 29.9 mph N/A   Overcast
5:54 AM 3.9 °F -14.3 °F -7.1 °F 60% 30.27 in 10.0 mi North 15.0 mph 27.6 mph N/A   Overcast
6:54 AM 3.9 °F -16.1 °F -8.0 °F 58% 30.31 in 10.0 mi North 18.4 mph 27.6 mph N/A   Overcast
7:54 AM 3.0 °F -17.8 °F -9.0 °F 57% 30.33 in 9.0 mi North 19.6 mph 26.5 mph 0.00 in   Overcast
8:54 AM 1.9 °F -20.7 °F -11.0 °F 55% 30.35 in 10.0 mi North 23.0 mph 33.4 mph N/A   Overcast
9:54 AM 1.9 °F -19.8 °F -11.9 °F 52% 30.37 in 10.0 mi North 20.7 mph 26.5 mph N/A   Overcast
10:54 AM 3.0 °F -16.7 °F -13.0 °F 47% 30.37 in 10.0 mi North 17.3 mph 26.5 mph N/A   Overcast
11:54 AM 3.9 °F -17.1 °F -11.9 °F 48% 30.35 in 10.0 mi North 20.7 mph 29.9 mph N/A   Mostly Cloudy
12:54 PM 5.0 °F -17.5 °F -11.9 °F 46% 30.35 in 10.0 mi North 25.3 mph 33.4 mph N/A   Scattered Clouds
1:54 PM 5.0 °F -16.7 °F -9.9 °F 50% 30.36 in 10.0 mi NNW 23.0 mph - N/A   Scattered Clouds
2:54 PM 7.0 °F -13.6 °F -7.1 °F 53% 30.38 in 10.0 mi NNW 21.9 mph 33.4 mph N/A   Scattered Clouds
3:54 PM 6.1 °F -14.3 °F -7.1 °F 55% 30.39 in 10.0 mi NNW 20.7 mph 24.2 mph N/A   Scattered Clouds
4:46 PM 3.9 °F -19.4 °F -9.0 °F 55% 30.36 in 10.0 mi NNW 26.5 mph 34.5 mph N/A   Mostly Cloudy
4:54 PM 3.0 °F -19.7 °F -9.9 °F 55% 30.44 in 10.0 mi NNW 24.2 mph 35.7 mph N/A   Mostly Cloudy
5:18 PM 1.9 °F -21.6 °F -13.0 °F 50% 30.37 in 10.0 mi NNW 25.3 mph 36.8 mph N/A   Partly Cloudy
5:54 PM 1.0 °F -19.9 °F -16.1 °F 45% 30.46 in 10.0 mi NNW 18.4 mph 34.5 mph N/A   Partly Cloudy
6:54 PM -0.9 °F -21.9 °F -16.1 °F 49% 30.48 in 10.0 mi NNW 17.3 mph 31.1 mph N/A   Clear
7:54 PM -2.9 °F -28.1 °F -18.0 °F 49% 30.48 in 10.0 mi NNW 25.3 mph 32.2 mph N/A   Clear
8:54 PM -5.1 °F -31.9 °F -20.0 °F 49% 30.49 in 10.0 mi NW 27.6 mph 36.8 mph N/A   Clear
9:39 PM -6.0 °F -31.2 °F -18.9 °F 54% 30.42 in 9.0 mi NW 23.0 mph 28.8 mph 0.00 in Snow Light Snow
9:54 PM -7.1 °F -33.7 °F -20.0 °F 53% 30.50 in 9.0 mi NW 25.3 mph 33.4 mph 0.00 in Snow Light Snow
10:12 PM -8.0 °F -35.8 °F -22.0 °F 50% 30.42 in 9.0 mi NNW 27.6 mph 36.8 mph 0.00 in Snow Light Snow
10:54 PM -9.0 °F -36.3 °F -23.1 °F 50% 30.51 in 10.0 mi NW 25.3 mph 39.1 mph 0.00 in   Scattered Clouds
11:54 PM -9.9 °F -34.8 °F -22.0 °F 55% 30.50 in 10.0 mi NNW 19.6 mph 31.1 mph N/A   Mostly Cloudy